Flag for Canada Weather past 2 weeks in Regina, Saskatchewan, Canada

Now
21 °F

Light snow. Mostly cloudy.


Feels Like: 8 °F
Forecast: 20 / 31 °F
Wind: 14 mph from East

Location: Regina Weather Station


UV Index: 3 (Moderate)

Visibility: 4 mi


Pressure: 30.23 "Hg

Humidity: 86%

Dew point: 18 °F

Location of ReginaLocation

Historic Weather in Regina

°F

Regina temperature yesterday

Maximum temperature yesterday: 39 °F (at 3:00 PM)
Minimum temperature yesterday: 25 °F (at 12:00 AM)
Average temperature yesterday: 29 °F

Past Weeks' High & Low Weather Summary

 TemperatureHumidityPressure
High59 °F (Apr 8, 4:00 PM)100% (Apr 3, 2:00 AM)30.45 "Hg (Apr 3, 2:00 AM)
Low7 °F (Apr 1, 6:00 AM)40% (Apr 10, 2:00 PM)29.51 "Hg (Apr 9, 6:00 AM)
Average31 °F75%29.99 "Hg
* Reported Apr 1 6:00 AM — Apr 16 6:00 AM, Regina, Weather by CustomWeather, © 2014

Note: Actual official high and low records may vary slightly from our data, if they occured in-between our weather recording intervals... More about our weather records

Advertising

Historic Weather Conditions — Data for Previous 24 hours

 ConditionsComfort  
Time TempWeatherWind HumidityBarometerVisibility
6:00 AM
Apr 16
21 °FLight snow. Ice fog.14 mph86%30.19 "Hg3 mi
5:00 AM21 °FLight snow. Overcast.10 mph93%30.16 "Hg10 mi
4:00 AM21 °FLight snow. Overcast.15 mph86%30.13 "Hg4 mi
3:00 AM23 °FOvercast.14 mph80%30.11 "Hg15 mi
2:00 AM23 °FLight snow. Passing clouds.13 mph86%30.08 "Hg15 mi
1:00 AM23 °FLight snow. Passing clouds.20 mph86%30.05 "Hg15 mi
12:00 AM25 °FPassing clouds.17 mph80%30.02 "Hg15 mi
11:00 PM
Apr 15
25 °FPassing clouds.18 mph80%30.01 "Hg15 mi
10:00 PM25 °FPassing clouds.18 mph86%29.98 "Hg15 mi
9:00 PM27 °FLight snow. Overcast.16 mph86%29.96 "Hg5 mi
8:00 PM27 °FLight snow. Overcast.20 mph86%29.93 "Hg3 mi
7:03 PM30 °FLight snow. Overcast.23 mph75%29.90 "Hg2 mi
5:00 PM36 °FOvercast.25 mph48%29.81 "Hg15 mi
4:00 PM39 °FOvercast.26 mph45%29.79 "Hg15 mi
3:00 PM39 °FOvercast.21 mph45%29.79 "Hg15 mi
2:00 PM37 °FOvercast.24 mph48%29.79 "Hg15 mi
1:00 PM37 °FOvercast.22 mph48%29.79 "Hg15 mi
12:00 PM36 °FOvercast.26 mph52%29.80 "Hg15 mi
11:00 AM36 °FOvercast.22 mph52%29.80 "Hg15 mi
10:00 AM32 °FMore clouds than sun.24 mph55%29.82 "Hg15 mi
9:00 AM28 °FBroken clouds.28 mph59%29.83 "Hg15 mi
8:00 AM27 °FOvercast.26 mph64%29.86 "Hg15 mi
7:00 AM25 °FOvercast.22 mph69%29.88 "Hg15 mi
Weather by CustomWeather, © 2014

See weather overview